Tracking 29594 objects as of 20-Sep-2024
HD Live streaming from Space Station
objects crossing your sky now

FENGYUN 1C DEB

Track FENGYUN 1C DEB now!
10-day predictions


NORAD ID: 31302
Int'l Code: 1999-025BPL
Perigee: 805.1 km
Apogee: 845.5 km
Inclination: 99.4 °
Period: 101.3 minutes
Semi major axis: 7196 km
RCS: 0.011 m2 (small)
Launch date: May 10, 1999
Source: People's Republic of China (PRC)
Launch site: Taiyaun Space Center, China (TSC)

Note: This is SATELLITE DEBRIS
Your satellite tracking list
Your tracking list is empty




NASA's NSSDC Master Catalog

Two Line Element Set (TLE):
1 31302U 99025BPL 24262.23507238  .00010160  00000-0  45838-2 0  9998
2 31302  99.4346 264.9265 0028060 253.1294 166.4669 14.22140349900021
Source of the keplerian elements: AFSPC